When you browse on this site, cookies collect data to enhance your experience and personalize the content and advertising you see.
Visit our Privacy Policy to learn more. By continuing to use the site, you agree to this use of cookies and data.
  • In Romania
  • List of Countries
  • For 7 days
  • Water Temperature
  • Satellite Maps
  • Weather Map
  • Weather Widgets
  • user-avatar
    Login

    Hourly Weather Myslawczyce

    Today, 11 December, Tuesday

    Time Temperature Precipitation Wind Pressure Humidity
    00:00 -1°C° 0 mm 4 mps 740 mmHg 86%
    01:00 -1°C° 0 mm 4 mps 740 mmHg 85%
    02:00 -1°C° 0 mm 3 mps 740 mmHg 85%
    03:00 -1°C° 0 mm 3 mps 740 mmHg 86%
    04:00 -1°C° 0 mm 3 mps 740 mmHg 86%
    05:00 -1°C° 0 mm 3 mps 740 mmHg 86%
    06:00 -1°C° 0 mm 3 mps 740 mmHg 85%
    07:00 -2°C° 0 mm 2 mps 740 mmHg 86%
    08:00 -1°C° 0 mm 3 mps 740 mmHg 82%
    09:00 0°C° 0 mm 3 mps 740 mmHg 77%
    10:00 +1°C° 0 mm 3 mps 740 mmHg 73%
    11:00 +1°C° 0.2 mm 3 mps 740 mmHg 73%
    12:00 +2°C° 0.2 mm 3 mps 740 mmHg 73%
    13:00 +2°C° 0.2 mm 3 mps 740 mmHg 73%
    14:00 +3°C° 0.3 mm 2 mps 740 mmHg 77%
    15:00 +2°C° 0.3 mm 2 mps 740 mmHg 80%
    16:00 +2°C° 0.3 mm 2 mps 740 mmHg 84%
    17:00 +2°C° 0.2 mm 2 mps 740 mmHg 86%
    18:00 +1°C° 0.2 mm 2 mps 740 mmHg 88%
    19:00 +1°C° 0.2 mm 2 mps 740 mmHg 90%
    20:00 +1°C° 0.1 mm 2 mps 741 mmHg 91%
    21:00 +1°C° 0.1 mm 2 mps 741 mmHg 92%
    22:00 +2°C° 0.1 mm 1 mps 741 mmHg 93%
    23:00 +2°C° 0.1 mm 1 mps 742 mmHg 93%

    Tomorrow, 12 December, Wednesday

    Time Temperature Precipitation Wind Pressure Humidity
    00:00 +2°C° 0.1 mm 1 mps 742 mmHg 93%
    01:00 +2°C° 0.1 mm 1 mps 742 mmHg 94%
    02:00 +2°C° 0.1 mm 1 mps 743 mmHg 94%
    03:00 +1°C° 0.1 mm 1 mps 743 mmHg 94%
    04:00 +1°C° 0.1 mm 1 mps 743 mmHg 94%
    05:00 +1°C° 0 mm 1 mps 743 mmHg 94%
    06:00 +1°C° 0 mm 1 mps 744 mmHg 94%
    07:00 +1°C° 0 mm 1 mps 744 mmHg 94%
    08:00 +1°C° 0.1 mm 1 mps 745 mmHg 93%
    09:00 +1°C° 0.1 mm 2 mps 745 mmHg 91%
    10:00 +1°C° 0.1 mm 2 mps 745 mmHg 90%
    11:00 +1°C° 0.1 mm 2 mps 746 mmHg 89%
    12:00 +1°C° 0.1 mm 2 mps 746 mmHg 88%
    13:00 +1°C° 0.1 mm 2 mps 746 mmHg 87%
    14:00 +1°C° 0 mm 2 mps 746 mmHg 88%
    15:00 -1°C° 0 mm 2 mps 746 mmHg 90%
    16:00 -1°C° 0 mm 2 mps 747 mmHg 91%
    17:00 -2°C° 0 mm 2 mps 747 mmHg 92%
    18:00 -2°C° 0 mm 2 mps 747 mmHg 92%
    19:00 -3°C° 0 mm 2 mps 747 mmHg 93%
    20:00 -3°C° 0 mm 2 mps 748 mmHg 93%
    21:00 -3°C° 0 mm 2 mps 748 mmHg 94%
    22:00 -3°C° 0 mm 2 mps 748 mmHg 94%
    23:00 -2°C° 0.1 mm 2 mps 748 mmHg 94%

    Day after tomorrow, 13 December, Thursday

    Time Temperature Precipitation Wind Pressure Humidity
    00:00 -2°C° 0.1 mm 2 mps 748 mmHg 94%
    01:00 -2°C° 0.1 mm 2 mps 748 mmHg 93%
    02:00 -2°C° 0.1 mm 2 mps 748 mmHg 94%
    03:00 -2°C° 0.1 mm 2 mps 748 mmHg 94%
    04:00 -2°C° 0.1 mm 2 mps 748 mmHg 94%
    05:00 -2°C° 0.1 mm 2 mps 748 mmHg 94%
    06:00 -2°C° 0.1 mm 2 mps 748 mmHg 94%
    07:00 -1°C° 0.1 mm 2 mps 748 mmHg 94%
    08:00 -1°C° 0.1 mm 2 mps 748 mmHg 93%
    09:00 -1°C° 0.1 mm 2 mps 748 mmHg 92%
    10:00 -1°C° 0.1 mm 2 mps 748 mmHg 91%
    11:00 +1°C° 0.1 mm 2 mps 748 mmHg 90%
    12:00 +1°C° 0.1 mm 2 mps 748 mmHg 89%
    13:00 +1°C° 0.1 mm 2 mps 747 mmHg 88%
    14:00 +1°C° 0.1 mm 2 mps 747 mmHg 89%
    15:00 +1°C° 0.1 mm 1 mps 747 mmHg 90%
    16:00 +1°C° 0.1 mm 1 mps 748 mmHg 92%
    17:00 +1°C° 0 mm 1 mps 748 mmHg 92%
    18:00 0°C° 0 mm 1 mps 748 mmHg 93%
    19:00 0°C° 0 mm 1 mps 748 mmHg 94%
    20:00 0°C° 0 mm 1 mps 748 mmHg 94%
    21:00 0°C° 0 mm 1 mps 748 mmHg 94%
    22:00 0°C° 0 mm 1 mps 749 mmHg 94%
    23:00 0°C° 0 mm 1 mps 749 mmHg 94%

    14 December, Friday

    Time Temperature Precipitation Wind Pressure Humidity
    00:00 -1°C° 0 mm 1 mps 749 mmHg 93%
    01:00 -1°C° 0 mm 1 mps 749 mmHg 93%
    02:00 -1°C° 0 mm 1 mps 749 mmHg 93%
    03:00 -1°C° 0 mm 1 mps 749 mmHg 93%
    04:00 -1°C° 0 mm 1 mps 749 mmHg 93%
    05:00 -1°C° 0 mm 1 mps 749 mmHg 93%
    06:00 -1°C° 0 mm 1 mps 749 mmHg 93%
    07:00 -2°C° 0 mm 1 mps 750 mmHg 94%
    08:00 -1°C° 0 mm 1 mps 750 mmHg 91%
    09:00 -1°C° 0 mm 1 mps 750 mmHg 89%
    10:00 0°C° 0 mm 1 mps 750 mmHg 86%
    11:00 0°C° 0 mm 1 mps 750 mmHg 84%
    12:00 0°C° 0 mm 1 mps 750 mmHg 82%
    13:00 +1°C° 0 mm 1 mps 750 mmHg 79%
    14:00 0°C° 0 mm 1 mps 750 mmHg 82%
    15:00 0°C° 0 mm 1 mps 750 mmHg 85%
    16:00 -1°C° 0 mm 1 mps 750 mmHg 88%
    17:00 -1°C° 0 mm 1 mps 751 mmHg 89%
    18:00 -1°C° 0 mm 1 mps 751 mmHg 90%
    19:00 -1°C° 0 mm 1 mps 751 mmHg 91%
    20:00 -1°C° 0 mm 1 mps 751 mmHg 92%
    21:00 -1°C° 0 mm 1 mps 751 mmHg 93%
    22:00 -1°C° 0 mm 1 mps 751 mmHg 93%
    23:00 -1°C° 0 mm 1 mps 751 mmHg 94%

    15 December, Saturday

    Time Temperature Precipitation Wind Pressure Humidity
    00:00 -1°C° 0 mm 1 mps 751 mmHg 94%
    01:00 -3°C° 0 mm 2 mps 751 mmHg 94%
    02:00 -3°C° 0.1 mm 2 mps 751 mmHg 94%
    03:00 -3°C° 0.1 mm 2 mps 751 mmHg 94%
    04:00 -3°C° 0.1 mm 2 mps 751 mmHg 94%
    05:00 -3°C° 0 mm 2 mps 751 mmHg 94%
    06:00 -3°C° 0 mm 2 mps 751 mmHg 93%
    07:00 -4°C° 0 mm 3 mps 751 mmHg 93%
    08:00 -4°C° 0 mm 3 mps 751 mmHg 92%
    09:00 -2°C° 0 mm 3 mps 752 mmHg 90%
    10:00 -2°C° 0 mm 3 mps 752 mmHg 88%
    11:00 -2°C° 0 mm 3 mps 752 mmHg 86%
    12:00 -2°C° 0 mm 3 mps 752 mmHg 84%
    13:00 -1°C° 0 mm 3 mps 752 mmHg 82%
    14:00 -1°C° 0.1 mm 3 mps 752 mmHg 84%
    15:00 -2°C° 0.1 mm 3 mps 752 mmHg 86%
    16:00 -2°C° 0.1 mm 3 mps 752 mmHg 88%
    17:00 -2°C° 0.1 mm 3 mps 753 mmHg 89%
    18:00 -2°C° 0.1 mm 3 mps 753 mmHg 90%
    19:00 -2°C° 0.1 mm 3 mps 753 mmHg 91%
    20:00 -2°C° 0 mm 3 mps 753 mmHg 91%
    21:00 -2°C° 0 mm 3 mps 753 mmHg 92%
    22:00 -2°C° 0 mm 3 mps 753 mmHg 93%
    23:00 -4°C° 0 mm 3 mps 753 mmHg 93%

    16 December, Sunday

    Time Temperature Precipitation Wind Pressure Humidity
    00:00 -4°C° 0 mm 3 mps 753 mmHg 93%
    01:00 -4°C° 0 mm 3 mps 753 mmHg 93%
    02:00 -4°C° 0.1 mm 3 mps 753 mmHg 93%
    03:00 -4°C° 0.1 mm 3 mps 753 mmHg 93%
    04:00 -4°C° 0.1 mm 3 mps 753 mmHg 92%
    05:00 -4°C° 0.1 mm 3 mps 754 mmHg 92%
    06:00 -4°C° 0.1 mm 3 mps 754 mmHg 92%
    07:00 -3°C° 0.1 mm 2 mps 754 mmHg 92%
    08:00 -2°C° 0 mm 2 mps 754 mmHg 91%
    09:00 -2°C° 0 mm 2 mps 754 mmHg 90%
    10:00 -2°C° 0 mm 2 mps 754 mmHg 89%
    11:00 -2°C° 0 mm 2 mps 754 mmHg 88%
    12:00 -1°C° 0 mm 2 mps 754 mmHg 87%
    13:00 +1°C° 0 mm 1 mps 754 mmHg 86%
    14:00 +1°C° 0 mm 1 mps 754 mmHg 87%
    15:00 0°C° 0 mm 1 mps 754 mmHg 88%
    16:00 0°C° 0 mm 1 mps 754 mmHg 90%
    17:00 0°C° 0 mm 1 mps 754 mmHg 90%
    18:00 -1°C° 0 mm 1 mps 754 mmHg 91%
    19:00 -1°C° 0 mm 1 mps 754 mmHg 91%
    20:00 -1°C° 0 mm 1 mps 754 mmHg 91%
    21:00 -2°C° 0 mm 1 mps 754 mmHg 91%
    22:00 -2°C° 0 mm 1 mps 754 mmHg 92%
    23:00 -2°C° 0 mm 1 mps 754 mmHg 91%
    Show more